Retour au catalogue

STARLINK-31484

ActifCommunicationsVLEO
NORAD 59005·PAYLOAD·🇺🇸 United States

Lancé Feb 23, 2024 depuis Vandenberg Space Force Base

Loading…

Prochains Passages (prochaines 24 heures)

TLE

FraisSource: CelesTrak SupGP

Époque: Sep 14, 2026, 21:22 UTC

1 59005C 24036H   26257.89076389  .00046009  00000+0  13593-2 0  2574
2 59005  53.1571 277.7084 0001272  79.8911 270.0574 15.34368405    10

Suivez STARLINK-31484 en temps réel avec AllMySat

Download on the App Store